Tracking 20712 objects as of 29-May-2020
HD Live streaming from Space Station
objects crossing your sky now

CZ-2C DEB

Track CZ-2C DEB now!
10-day predictions


NORAD ID: 37733
Int'l Code: 2011-030D
Perigee: 692.7 km
Apogee: 911.9 km
Inclination: 98.3 °
Period: 100.8 minutes
Semi major axis: 7173 km
RCS: 0.096 m2 (small)
Launch date: July 6, 2011
Source: People's Republic of China (PRC)
Launch site: Jiuquan Satellite Launch Center, China (JSC)

Note: This is SATELLITE DEBRIS
aabbcc
Your satellite tracking list
Your tracking list is empty




NASA's NSSDC Master Catalog

Two Line Element Set (TLE):
1 37733U 11030D   20150.48509089 +.00000234 +00000-0 +97346-4 0  9991
2 37733 098.3250 128.0438 0152838 320.8913 151.1911 14.28973639463050
Source of the keplerian elements: AFSPC